Powrót do katalogu

STARLINK-33828

AktywnyŁącznośćVLEO
NORAD 63493·PAYLOAD·🇺🇸 United States

Wystrzelony Apr 7, 2025 z Vandenberg Space Force Base

Loading…

Następne Przeloty (najbliższe 24 godziny)

TLE

ŚwieżeSource: CelesTrak SupGP

Epoka: Sep 15, 2026, 03:39 UTC

1 63493C 25071A   26258.15256944  .00058822  00000+0  17377-2 0  2588
2 63493  53.1593 335.0492 0001103  97.7288 343.5246 15.34365864    18

Śledź STARLINK-33828 w czasie rzeczywistym z AllMySat

Download on the App Store